Hourly Data Report for September 29, 2017

All times are specified in Local Standard Time (LST). Add 1 hour to adjust for Daylight Saving Time where and when it is observed.

GRAND MANAN SAR CS
NEW BRUNSWICK

44°42'43.400" N
66°48'06.900" W
78.20 m
8101925
71030
XGM

Download Data

Hourly Data (September 2017)
Hourly Data Report for September 29, 2017
Temp Definition
°C
Dew Point Temp Definition
°C
Rel Hum Definition
%
Wind Dir Definition
10's deg

Wind Spd Definition
km/h
Visibility Definition
km
Stn Press Definition
kPa
Hmdx Definition


Wind Chill Definition


Weather Definition


TIME
00:00 10.8 3.6 61 34 20   99.97     LegendNANA
01:00 10.3 3.8 64 33 20   100.00     LegendNANA
02:00 9.4 4.2 70 33 17   100.04     LegendNANA
03:00 9.0 4.1 71 35 14   100.04     LegendNANA
04:00 8.8 3.8 71 34 18   100.05     LegendNANA
05:00 8.4 3.8 73 34 19   100.09     LegendNANA
06:00 7.9 3.4 73 35 16   100.13     LegendNANA
07:00 8.0 3.8 75 34 13   100.21     LegendNANA
08:00 8.7 3.7 71 33 14   100.25     LegendNANA
09:00 9.6 3.6 66 35 22   100.29     LegendNANA
10:00 10.8 4.5 65 35 17   100.34     LegendNANA
11:00 11.9 4.0 58 35 15   100.34     LegendNANA
12:00 11.8 2.9 54 35 18   100.34     LegendNANA
13:00 13.0 2.8 50 35 23   100.35     LegendNANA
14:00 13.6 3.0 49 35 17   100.38     LegendNANA
15:00 14.0 3.2 48 35 16   100.42     LegendNANA
16:00 13.7 3.4 50 34 18   100.44     LegendNANA
17:00 13.1 3.5 52 35 11   100.52     LegendNANA
18:00 11.2 3.8 60 35 12   100.62     LegendNANA
19:00 9.9 3.6 65 36 12   100.73     LegendNANA
20:00 8.9 3.1 67 1 9   100.84     LegendNANA
21:00 7.9 3.1 72 35 8   100.89     LegendNANA
22:00 8.0 2.8 70 1 9   100.91     LegendNANA
23:00 7.9 3.4 73 36 10   100.96     LegendNANA

Notes on Data Quality.

Legend

  • E = Estimated
  • M = Missing
  • NA = Not Available
  • ‡ = Partner data that is not subject to review by the National Climate Archives
Date modified: